Regional Weather Roundup
Issued by NWS

Home | Current Version | Previous Version | Graphics & Text | Print | Product List | Glossary On
Versions: 1 2 3 4 5 6 7 8 9 10 11 12 13 14 15 16 17 18 19 20 21 22 23 24 25 26 27 28 29 30 31 32 33 34 35 36 37 38 39 40 41 42 43 44 45 46 47 48 49 50
681
ASUS43 KTOP 240208
RWRKS

WEATHER ROUNDUP FOR KANSAS
NATIONAL WEATHER SERVICE GOODLAND KS
900 PM CDT SAT SEP 23 2017

NOTE:  "FAIR" INDICATES FEW OR NO CLOUDS BELOW 12,000 FEET WITH NO
SIGNIFICANT WEATHER AND/OR OBSTRUCTIONS TO VISIBILITY.

KSZ001>006-013>018-027>032-041>047-240300-
NORTHWEST KANSAS

CITY           SKY/WX    TMP DP  RH WIND       PRES   REMARKS
GOODLAND       LGT RAIN  57  57 100 E8        29.89F
HAYS           PTCLDY    80  59  48 SE18      29.84F
HILL CITY      MOCLDY    72  61  68 CALM      29.84S
RUSSELL        PTCLDY    81  57  43 SE20G26   29.85S
$$

KSZ061>065-074>080-084>089-240300-
SOUTHWEST KANSAS

CITY           SKY/WX    TMP DP  RH WIND       PRES   REMARKS
DODGE CITY     PTCLDY    78  56  46 SE18      29.87S
ELKHART          N/A     62  63 100 SE5         N/A
GARDEN CITY    CLOUDY    77  60  55 S14       29.85S
GREAT BEND     PTCLDY    79  59  50 S15       29.88R
LIBERAL        CLOUDY    76  61  59 SE16G23   29.86S
PRATT          CLEAR     79  58  48 SE12      29.89S
$$

KSZ066>073-081>083-090>101-240300-
SOUTHEAST KANSAS

CITY           SKY/WX    TMP DP  RH WIND       PRES   REMARKS
CHANUTE        CLEAR     76  66  71 E6        29.95R
COFFEYVILLE    CLEAR     76  68  76 CALM      29.93R
HUTCHINSON     CLEAR     79  63  57 SE12      29.90R
MEDICINE LODGE   N/A     80  60  50 SE8       29.88S
NEWTON         CLEAR     73  62  68 SE8       29.94R
PARSONS        CLEAR     74  66  76 CALM      29.95R
WICHITA INTL   PTCLDY    80  63  55 SE12      29.92R
WICHITA JABRA  CLEAR     76  64  66 SE7       29.93R
WICHITA MCCONL CLEAR     79  61  54 S9        29.93R
WINFIELD       CLEAR     78  65  63 SE7       29.94R
$$

KSZ007>012-019>026-033>040-048>060-102>105-240300-
NORTHEAST KANSAS

CITY           SKY/WX    TMP DP  RH WIND       PRES   REMARKS
CONCORDIA      PTCLDY    79  61  53 SE14      29.89R
EMPORIA        CLEAR     75  63  66 SE8       29.95R
LAWRENCE       CLEAR     74  68  81 E6        29.94S
MANHATTAN      CLEAR     80  63  55 SE6       29.92R
MARYSVILLE     CLEAR     79  63  57 SE9       29.92R
OLATHE IND     CLEAR     78  68  71 SE8       29.97R
OLATHE EXE     CLEAR     75  69  81 CALM      29.97R
SALINA         PTCLDY    82  61  48 SE13      29.89R
TOPEKA BILLARD CLEAR     75  67  76 E3        29.94R
TOPEKA FORBES  CLEAR     76  67  73 SE6       29.95R
$$




USA.gov is the U.S. government's official web portal to all federal, state and local government web resources and services.